[ hide orbit diagram ]
For accurate long-term ephemerides, please instead use our Horizons system.This orbit viewer was implemented using two-body methods, and hence should not be used for determining accurate long-term trajectories (over several years or decades) or planetary encounter circumstances.
Orbital Elements at Epoch 2459200.5 (2020-Dec-17.0) TDB
Reference: JPL 21 (heliocentric ecliptic J2000)
Element | Value | Uncertainty (1-sigma) | Units |
e | .1632678418330019 | 4.4281e-08 | |
a | 2.719713650610386 | 1.7785e-08 | au |
q | 2.275671872471473 | 1.1938e-07 | au |
i | 15.2461408275181 | 5.57e-06 | deg |
node | 116.752753099946 | 1.9093e-05 | deg |
peri | 332.2012703550661 | 2.7458e-05 | deg |
M | 34.14258570897111 | 1.789e-05 | deg |
tp | 2459045.126443809189 (2020-Jul-14.62644381) | 8.1016e-05 | TDB |
period | 1638.261398989325 4.49 | 1.6069e-05 4.399e-08 | d yr |
n | .2197451519165934 | 2.1554e-09 | deg/d |
Q | 3.163755428749298 | 2.0688e-08 | au |
|
| | Orbit Determination Parameters
Additional Information
|
[ show covariance matrix ]
Physical Parameter Table
Parameter |
Symbol |
Value |
Units |
Sigma |
Reference |
Notes |
absolute magnitude |
H |
15.8 |
|
n/a |
MPO503201 |
|
|
259244 (2003 BJ67) Discovered 2003-Jan-30 by NEAT at Haleakala |
Reference: 20110119/Numbers.arc | Last Updated: 2011-01-25 |
|
[ show close-approach data ]
|